Year,Month,Day,Hour,Minute,Value (Times are PST for windspeed in km/hr)
2010,07,10,00,00,19.40
2010,07,10,00,01,15.10
2010,07,10,00,02,17.00
2010,07,10,00,03,10.60
2010,07,10,00,04,19.10
2010,07,10,00,05,14.30
2010,07,10,00,06,12.90
2010,07,10,00,07,10.60
2010,07,10,00,08,10.90
2010,07,10,00,09,21.30
2010,07,10,00,10,9.70
2010,07,10,00,11,11.10
2010,07,10,00,12,20.10
2010,07,10,00,18,10.00
2010,07,10,00,19,8.40
2010,07,10,00,20,12.80
2010,07,10,00,21,9.20
2010,07,10,00,22,10.00
2010,07,10,00,23,14.00
2010,07,10,00,24,21.50
2010,07,10,00,25,19.70
2010,07,10,00,26,14.30
2010,07,10,00,27,16.80
2010,07,10,00,28,15.90
2010,07,10,00,29,9.90
2010,07,10,00,30,15.80
2010,07,10,00,31,19.40
2010,07,10,00,32,17.00
2010,07,10,00,33,17.90
2010,07,10,00,34,21.40
2010,07,10,00,35,21.50
2010,07,10,00,36,20.40
2010,07,10,00,37,20.30
2010,07,10,00,38,13.90
2010,07,10,00,39,12.60
2010,07,10,00,40,13.40
2010,07,10,00,41,16.40
2010,07,10,00,42,15.40
2010,07,10,00,43,15.40
2010,07,10,00,44,12.10
2010,07,10,00,45,9.50
2010,07,10,00,46,11.80
2010,07,10,00,47,11.50
2010,07,10,00,48,14.10
2010,07,10,00,49,15.70
2010,07,10,00,50,11.30
2010,07,10,00,51,12.10
2010,07,10,00,52,14.70
2010,07,10,00,53,14.60
2010,07,10,00,54,17.00
2010,07,10,00,55,15.20
2010,07,10,00,56,15.90
2010,07,10,00,57,16.70
2010,07,10,00,58,15.40
2010,07,10,00,59,12.30
2010,07,10,01,00,9.00
2010,07,10,01,01,11.70
2010,07,10,01,02,17.90
2010,07,10,01,03,11.20
2010,07,10,01,04,18.00
2010,07,10,01,05,18.10
2010,07,10,01,06,18.10
2010,07,10,01,07,11.90
2010,07,10,01,08,16.20
2010,07,10,01,09,18.50
2010,07,10,01,10,24.70
2010,07,10,01,11,14.50
2010,07,10,01,12,15.60
2010,07,10,01,13,12.00
2010,07,10,01,14,9.70
2010,07,10,01,15,9.60
2010,07,10,01,16,11.20
2010,07,10,01,17,14.60
2010,07,10,01,18,13.70
2010,07,10,01,19,16.40
2010,07,10,01,20,11.60
2010,07,10,01,21,17.70
2010,07,10,01,22,14.70
2010,07,10,01,23,17.00
2010,07,10,01,24,13.90
2010,07,10,01,25,17.70
2010,07,10,01,26,11.20
2010,07,10,01,27,17.30
2010,07,10,01,28,15.30
2010,07,10,01,29,12.80
2010,07,10,01,30,12.50
2010,07,10,01,31,18.50
2010,07,10,01,32,22.60
2010,07,10,01,33,14.30
2010,07,10,01,34,19.00
2010,07,10,01,35,14.20
2010,07,10,01,36,14.20
2010,07,10,01,37,13.60
2010,07,10,01,38,14.70
2010,07,10,01,39,10.90
2010,07,10,01,40,14.30
2010,07,10,01,41,12.30
2010,07,10,01,42,8.50
2010,07,10,01,43,15.80
2010,07,10,01,44,16.90
2010,07,10,01,45,16.60
2010,07,10,01,46,21.80
2010,07,10,01,47,14.70
2010,07,10,01,48,19.60
2010,07,10,01,49,17.20
2010,07,10,01,50,14.60
2010,07,10,01,51,17.40
2010,07,10,01,52,14.70
2010,07,10,01,53,14.40
2010,07,10,01,54,13.00
2010,07,10,01,55,11.40
2010,07,10,01,56,14.20
2010,07,10,01,57,11.40
2010,07,10,01,58,15.10
2010,07,10,01,59,11.10
2010,07,10,02,00,17.30
2010,07,10,02,01,11.20
2010,07,10,02,02,13.50
2010,07,10,02,03,15.80
2010,07,10,02,04,14.50
2010,07,10,02,05,12.90
2010,07,10,02,06,16.50
2010,07,10,02,07,14.10
2010,07,10,02,08,21.60
2010,07,10,02,09,19.10
2010,07,10,02,10,16.10
2010,07,10,02,11,19.10
2010,07,10,02,12,8.60
2010,07,10,02,13,18.80
2010,07,10,02,14,14.40
2010,07,10,02,15,19.90
2010,07,10,02,16,17.30
2010,07,10,02,17,10.90
2010,07,10,02,18,21.80
2010,07,10,02,19,15.70
2010,07,10,02,20,17.90
2010,07,10,02,21,14.40
2010,07,10,02,22,11.40
2010,07,10,02,23,18.50
2010,07,10,02,24,19.90
2010,07,10,02,25,20.50
2010,07,10,02,26,13.40
2010,07,10,02,27,14.30
2010,07,10,02,28,17.50
2010,07,10,02,29,16.80
2010,07,10,02,30,17.70
2010,07,10,02,31,24.00
2010,07,10,02,32,15.80
2010,07,10,02,33,14.90
2010,07,10,02,34,16.40
2010,07,10,02,35,12.00
2010,07,10,02,36,14.90
2010,07,10,02,37,22.70
2010,07,10,02,38,16.20
2010,07,10,02,39,16.30
2010,07,10,02,40,15.50
2010,07,10,02,41,15.40
2010,07,10,02,42,14.10
2010,07,10,02,43,19.30
2010,07,10,02,44,13.60
2010,07,10,02,45,11.20
2010,07,10,02,46,16.30
2010,07,10,02,47,8.90
2010,07,10,02,48,14.50
2010,07,10,02,49,18.10
2010,07,10,02,50,23.80
2010,07,10,02,51,15.60
2010,07,10,02,52,14.20
2010,07,10,02,53,12.70
2010,07,10,02,54,10.40
2010,07,10,02,55,21.60
2010,07,10,02,56,21.90
2010,07,10,02,57,10.50
2010,07,10,02,58,12.00
2010,07,10,02,59,13.60
2010,07,10,03,00,12.10
2010,07,10,03,01,9.90
2010,07,10,03,02,13.00
2010,07,10,03,03,15.90
2010,07,10,03,04,17.30
2010,07,10,03,05,11.80
2010,07,10,03,06,15.30
2010,07,10,03,07,14.80
2010,07,10,03,08,12.50
2010,07,10,03,09,17.20
2010,07,10,03,10,15.30
2010,07,10,03,11,16.30
2010,07,10,03,12,13.70
2010,07,10,03,13,12.40
2010,07,10,03,14,16.00
2010,07,10,03,15,9.70
2010,07,10,03,16,15.20
2010,07,10,03,17,13.30
2010,07,10,03,18,18.90
2010,07,10,03,19,17.80
2010,07,10,03,20,21.30
2010,07,10,03,21,15.90
2010,07,10,03,22,18.00
2010,07,10,03,23,15.50
2010,07,10,03,24,19.60
2010,07,10,03,25,12.80
2010,07,10,03,26,11.70
2010,07,10,03,27,10.80
2010,07,10,03,28,23.50
2010,07,10,03,29,20.80
2010,07,10,03,30,6.20
2010,07,10,03,31,14.30
2010,07,10,03,32,21.40
2010,07,10,03,33,21.90
2010,07,10,03,34,9.60
2010,07,10,03,35,13.30
2010,07,10,03,36,15.20
2010,07,10,03,37,9.80
2010,07,10,03,38,17.10
2010,07,10,03,39,21.60
2010,07,10,03,40,22.10
2010,07,10,03,41,14.80
2010,07,10,03,42,10.80
2010,07,10,03,43,8.30
2010,07,10,03,44,8.60
2010,07,10,03,45,15.40
2010,07,10,03,46,15.80
2010,07,10,03,47,16.80
2010,07,10,03,48,12.50
2010,07,10,03,49,17.00
2010,07,10,03,50,18.30
2010,07,10,03,51,16.80
2010,07,10,03,52,17.10
2010,07,10,03,53,12.90
2010,07,10,03,54,12.60
2010,07,10,03,55,12.70
2010,07,10,03,56,12.20
2010,07,10,03,57,13.40
2010,07,10,03,58,11.40
2010,07,10,03,59,10.60
2010,07,10,04,00,9.70
2010,07,10,04,01,9.30
2010,07,10,04,02,6.30
2010,07,10,04,03,9.60
2010,07,10,04,04,16.90
2010,07,10,04,05,9.60
2010,07,10,04,06,14.10
2010,07,10,04,07,12.10
2010,07,10,04,08,11.70
2010,07,10,04,09,17.70
2010,07,10,04,10,23.30
2010,07,10,04,11,14.80
2010,07,10,04,12,19.10
2010,07,10,04,13,12.80
2010,07,10,04,14,12.60
2010,07,10,04,15,15.90
2010,07,10,04,16,15.30
2010,07,10,04,17,19.70
2010,07,10,04,18,6.10
2010,07,10,04,19,16.30
2010,07,10,04,20,12.60
2010,07,10,04,21,14.70
2010,07,10,04,22,20.10
2010,07,10,04,23,12.50
2010,07,10,04,24,21.30
2010,07,10,04,25,20.20
2010,07,10,04,26,15.10
2010,07,10,04,27,16.30
2010,07,10,04,28,16.10
2010,07,10,04,29,12.40
2010,07,10,04,30,14.90
2010,07,10,04,31,11.80
2010,07,10,04,32,16.40
2010,07,10,04,33,15.30
2010,07,10,04,34,13.10
2010,07,10,04,35,19.80
2010,07,10,04,36,19.00
2010,07,10,04,37,11.40
2010,07,10,04,38,18.70
2010,07,10,04,39,8.80
2010,07,10,04,40,19.30
2010,07,10,04,41,12.60
2010,07,10,04,42,18.00
2010,07,10,04,43,21.10
2010,07,10,04,44,11.30
2010,07,10,04,45,23.30
2010,07,10,04,46,12.40
2010,07,10,04,47,13.40
2010,07,10,04,48,19.60
2010,07,10,04,49,14.40
2010,07,10,04,50,16.00
2010,07,10,04,51,10.90
2010,07,10,04,52,11.10
2010,07,10,04,53,14.70
2010,07,10,04,54,16.10
2010,07,10,04,55,13.80
2010,07,10,04,56,19.90
2010,07,10,04,57,11.60
2010,07,10,04,58,15.20
2010,07,10,04,59,15.70
2010,07,10,05,00,14.20
2010,07,10,05,01,16.20
2010,07,10,05,02,19.30
2010,07,10,05,03,14.50
2010,07,10,05,04,24.60
2010,07,10,05,05,11.10
2010,07,10,05,06,9.90
2010,07,10,05,07,9.40
2010,07,10,05,08,15.30
2010,07,10,05,09,12.70
2010,07,10,05,10,14.30
2010,07,10,05,11,19.80
2010,07,10,05,12,16.90
2010,07,10,05,13,13.70
2010,07,10,05,14,9.80
2010,07,10,05,15,5.30
2010,07,10,05,16,15.10
2010,07,10,05,17,15.40
2010,07,10,05,18,7.70
2010,07,10,05,19,7.40
2010,07,10,05,20,7.10
2010,07,10,05,21,15.60
2010,07,10,05,22,13.20
2010,07,10,05,23,15.90
2010,07,10,05,24,15.90
2010,07,10,05,25,11.40
2010,07,10,05,26,16.20
2010,07,10,05,27,11.40
2010,07,10,05,28,9.60
2010,07,10,05,29,11.80
2010,07,10,05,30,9.20
2010,07,10,05,31,11.60
2010,07,10,05,32,12.30
2010,07,10,05,33,8.30
2010,07,10,05,34,7.80
2010,07,10,05,35,6.40
2010,07,10,05,36,6.90
2010,07,10,05,37,7.60
2010,07,10,05,38,12.10
2010,07,10,05,39,10.70
2010,07,10,05,40,19.90
2010,07,10,05,41,17.80
2010,07,10,05,42,16.80
2010,07,10,05,43,13.50
2010,07,10,05,44,10.10
2010,07,10,05,45,11.50
2010,07,10,05,46,20.50
2010,07,10,05,47,19.30
2010,07,10,05,48,14.20
2010,07,10,05,49,8.30
2010,07,10,05,50,7.00
2010,07,10,05,51,14.70
2010,07,10,05,52,7.70
2010,07,10,05,53,9.30
2010,07,10,05,54,10.20
2010,07,10,05,55,16.60
2010,07,10,05,56,21.00
2010,07,10,05,57,24.80
2010,07,10,05,58,15.30
2010,07,10,05,59,13.00
2010,07,10,06,00,10.80
2010,07,10,06,01,20.80
2010,07,10,06,02,20.20
2010,07,10,06,03,15.10
2010,07,10,06,04,12.50
2010,07,10,06,05,15.20
2010,07,10,06,06,19.70
2010,07,10,06,07,8.90
2010,07,10,06,08,6.90
2010,07,10,06,09,11.20
2010,07,10,06,10,14.00
2010,07,10,06,11,7.60
2010,07,10,06,12,6.90
2010,07,10,06,13,10.40
2010,07,10,06,14,13.00
2010,07,10,06,15,8.10
2010,07,10,06,16,12.20
2010,07,10,06,17,13.00
2010,07,10,06,18,18.60
2010,07,10,06,19,11.70
2010,07,10,06,20,12.40
2010,07,10,06,21,13.60
2010,07,10,06,22,11.40
2010,07,10,06,23,7.90
2010,07,10,06,24,9.00
2010,07,10,06,25,9.50
2010,07,10,06,26,6.80
2010,07,10,06,27,13.70
2010,07,10,06,28,8.40
2010,07,10,06,29,7.30
2010,07,10,06,30,6.80
2010,07,10,06,31,17.10
2010,07,10,06,32,14.20
2010,07,10,06,33,14.00
2010,07,10,06,34,8.80
2010,07,10,06,35,13.10
2010,07,10,06,36,9.60
2010,07,10,06,37,11.70
2010,07,10,06,38,6.20
2010,07,10,06,39,7.50
2010,07,10,06,40,5.80
2010,07,10,06,41,14.70
2010,07,10,06,42,13.30
2010,07,10,06,43,8.40
2010,07,10,06,44,5.30
2010,07,10,06,45,7.00
2010,07,10,06,46,9.30
2010,07,10,06,47,7.00
2010,07,10,06,48,7.50
2010,07,10,06,49,6.80
2010,07,10,06,50,9.00
2010,07,10,06,51,8.80
2010,07,10,06,52,10.80
2010,07,10,06,53,6.20
2010,07,10,06,54,7.50
2010,07,10,06,55,7.40
2010,07,10,06,56,8.60
2010,07,10,06,57,8.80
2010,07,10,06,58,11.30
2010,07,10,06,59,19.20
2010,07,10,07,00,14.40
2010,07,10,07,01,13.70
2010,07,10,07,02,17.30
2010,07,10,07,03,16.20
2010,07,10,07,04,11.90
2010,07,10,07,05,10.90
2010,07,10,07,06,10.10
2010,07,10,07,07,9.70
2010,07,10,07,08,7.40
2010,07,10,07,09,9.50
2010,07,10,07,10,11.40
2010,07,10,07,11,6.90
2010,07,10,07,12,9.70
2010,07,10,07,13,6.10
2010,07,10,07,14,11.10
2010,07,10,07,15,8.40
2010,07,10,07,16,7.40
2010,07,10,07,17,2.20
2010,07,10,07,18,5.80
2010,07,10,07,19,6.10
2010,07,10,07,20,9.60
2010,07,10,07,21,7.80
2010,07,10,07,22,10.10
2010,07,10,07,23,8.80
2010,07,10,07,24,6.20
2010,07,10,07,25,6.70
2010,07,10,07,26,10.30
2010,07,10,07,27,6.40
2010,07,10,07,28,8.00
2010,07,10,07,29,7.10
2010,07,10,07,30,10.30
2010,07,10,07,31,12.70
2010,07,10,07,32,13.60
2010,07,10,07,33,8.60
2010,07,10,07,34,6.30
2010,07,10,07,35,8.90
2010,07,10,07,36,9.50
2010,07,10,07,37,9.60
2010,07,10,07,38,6.60
2010,07,10,07,39,7.20
2010,07,10,07,40,8.00
2010,07,10,07,41,6.80
2010,07,10,07,42,5.20
2010,07,10,07,43,6.50
2010,07,10,07,44,10.80
2010,07,10,07,45,9.80
2010,07,10,07,46,7.90
2010,07,10,07,47,10.00
2010,07,10,07,48,9.90
2010,07,10,07,49,7.20
2010,07,10,07,50,8.50
2010,07,10,07,51,8.00
2010,07,10,07,52,13.10
2010,07,10,07,53,14.50
2010,07,10,07,54,9.30
2010,07,10,07,55,8.90
2010,07,10,07,56,12.90
2010,07,10,07,57,8.70
2010,07,10,07,58,10.00
2010,07,10,07,59,7.00
2010,07,10,08,00,7.30
2010,07,10,08,01,7.60
2010,07,10,08,02,8.20
2010,07,10,08,03,9.70
2010,07,10,08,04,8.80
2010,07,10,08,05,7.00
2010,07,10,08,06,7.90
2010,07,10,08,07,8.60
2010,07,10,08,08,10.70
2010,07,10,08,09,9.20
2010,07,10,08,10,7.20
2010,07,10,08,11,10.40
2010,07,10,08,12,8.10
2010,07,10,08,13,12.10
2010,07,10,08,14,8.00
2010,07,10,08,15,15.20
2010,07,10,08,16,15.80
2010,07,10,08,17,12.00
2010,07,10,08,18,12.90
2010,07,10,08,19,7.70
2010,07,10,08,20,6.00
2010,07,10,08,21,8.50
2010,07,10,08,22,7.80
2010,07,10,08,23,10.50
2010,07,10,08,24,12.00
2010,07,10,08,25,8.70
2010,07,10,08,26,12.00
2010,07,10,08,27,7.10
2010,07,10,08,28,9.40
2010,07,10,08,29,12.30
2010,07,10,08,30,9.80
2010,07,10,08,31,7.80
2010,07,10,08,32,10.80
2010,07,10,08,33,6.70
2010,07,10,08,34,20.50
2010,07,10,08,35,16.70
2010,07,10,08,36,10.10
2010,07,10,08,37,7.60
2010,07,10,08,38,6.70
2010,07,10,08,39,7.60
2010,07,10,08,40,10.90
2010,07,10,08,41,11.50
2010,07,10,08,42,7.30
2010,07,10,08,43,8.20
2010,07,10,08,44,5.70
2010,07,10,08,45,4.10
2010,07,10,08,46,4.80
2010,07,10,08,47,5.10
2010,07,10,08,48,4.80
2010,07,10,08,49,7.90
2010,07,10,08,50,11.10
2010,07,10,08,51,7.30
2010,07,10,08,52,6.40
2010,07,10,08,53,7.50
2010,07,10,08,54,6.10
2010,07,10,08,55,5.30
2010,07,10,08,56,6.30
2010,07,10,08,57,3.70
2010,07,10,08,58,3.00
2010,07,10,08,59,4.90
2010,07,10,09,00,7.90
2010,07,10,09,01,11.30
2010,07,10,09,02,8.70
2010,07,10,09,03,7.90
2010,07,10,09,04,7.50
2010,07,10,09,05,7.40
2010,07,10,09,06,5.10
2010,07,10,09,07,8.60
2010,07,10,09,08,11.30
2010,07,10,09,09,8.00
2010,07,10,09,10,11.50
2010,07,10,09,11,8.90
2010,07,10,09,12,9.80
2010,07,10,09,13,9.40
2010,07,10,09,14,11.60
2010,07,10,09,15,8.40
2010,07,10,09,16,2.80
2010,07,10,09,17,5.00
2010,07,10,09,18,3.90
2010,07,10,09,19,8.60
2010,07,10,09,20,7.70
2010,07,10,09,21,9.70
2010,07,10,09,22,9.80
2010,07,10,09,23,8.60
2010,07,10,09,24,13.50
2010,07,10,09,25,9.70
2010,07,10,09,26,7.30
2010,07,10,09,27,4.30
2010,07,10,09,28,8.40
2010,07,10,09,29,5.80
2010,07,10,09,30,4.70
2010,07,10,09,31,7.20
2010,07,10,09,32,5.00
2010,07,10,09,33,0.50
2010,07,10,09,34,5.60
2010,07,10,09,35,2.80
2010,07,10,09,36,8.10
2010,07,10,09,37,8.60
2010,07,10,09,38,6.00
2010,07,10,09,39,7.40
2010,07,10,09,40,2.90
2010,07,10,09,41,0.00
2010,07,10,09,42,0.10
2010,07,10,09,43,0.80
2010,07,10,09,44,3.70
2010,07,10,09,45,5.50
2010,07,10,09,46,5.20
2010,07,10,09,47,0.00
2010,07,10,09,48,1.40
2010,07,10,09,49,0.10
2010,07,10,09,50,0.50
2010,07,10,09,51,1.50
2010,07,10,09,52,0.00
2010,07,10,09,53,0.20
2010,07,10,09,54,0.00
2010,07,10,09,55,0.30
2010,07,10,09,56,0.40
2010,07,10,09,57,0.20
2010,07,10,09,58,3.40
2010,07,10,09,59,4.50
2010,07,10,10,00,4.00
2010,07,10,10,01,6.20
2010,07,10,10,02,8.30
2010,07,10,10,03,4.60
2010,07,10,10,04,4.40
2010,07,10,10,05,3.20
2010,07,10,10,06,1.70
2010,07,10,10,07,3.10
2010,07,10,10,08,2.50
2010,07,10,10,09,0.20
2010,07,10,10,10,0.90
2010,07,10,10,11,2.70
2010,07,10,10,12,2.40
2010,07,10,10,13,2.00
2010,07,10,10,14,0.10
2010,07,10,10,15,0.00
2010,07,10,10,16,1.40
2010,07,10,10,17,4.10
2010,07,10,10,18,4.30
2010,07,10,10,19,4.70
2010,07,10,10,20,4.50
2010,07,10,10,21,3.70
2010,07,10,10,22,1.50
2010,07,10,10,23,1.80
2010,07,10,10,24,5.90
2010,07,10,10,25,8.20
2010,07,10,10,26,9.10
2010,07,10,10,27,3.80
2010,07,10,10,28,0.00
2010,07,10,10,29,0.10
2010,07,10,10,30,0.50
2010,07,10,10,31,1.40
2010,07,10,10,32,3.00
2010,07,10,10,33,0.60
2010,07,10,10,34,1.20
2010,07,10,10,35,7.80
2010,07,10,10,36,8.00
2010,07,10,10,37,9.60
2010,07,10,10,38,6.30
2010,07,10,10,39,0.40
2010,07,10,10,40,3.30
2010,07,10,10,41,1.90
2010,07,10,10,42,5.20
2010,07,10,10,43,4.50
2010,07,10,10,44,8.70
2010,07,10,10,45,6.70
2010,07,10,10,46,3.00
2010,07,10,10,47,5.80
2010,07,10,10,48,2.80
2010,07,10,10,49,2.50
2010,07,10,10,50,6.10
2010,07,10,10,51,4.20
2010,07,10,10,52,8.10
2010,07,10,10,53,2.40
2010,07,10,10,54,7.50
2010,07,10,10,55,6.40
2010,07,10,10,56,3.70
2010,07,10,10,57,4.10
2010,07,10,10,58,4.70
2010,07,10,10,59,3.90
2010,07,10,11,00,6.50
2010,07,10,11,01,0.70
2010,07,10,11,02,1.80
2010,07,10,11,03,4.50
2010,07,10,11,04,1.20
2010,07,10,11,05,1.50
2010,07,10,11,06,3.50
2010,07,10,11,07,5.50
2010,07,10,11,08,1.40
2010,07,10,11,09,1.70
2010,07,10,11,10,5.70
2010,07,10,11,11,5.00
2010,07,10,11,12,4.90
2010,07,10,11,13,4.50
2010,07,10,11,14,3.50
2010,07,10,11,15,7.30
2010,07,10,11,16,5.60
2010,07,10,11,17,4.20
2010,07,10,11,18,3.80
2010,07,10,11,19,6.70
2010,07,10,11,20,1.00
2010,07,10,11,21,0.50
2010,07,10,11,22,3.40
2010,07,10,11,23,10.80
2010,07,10,11,24,8.10
2010,07,10,11,25,5.80
2010,07,10,11,26,6.10
2010,07,10,11,27,9.80
2010,07,10,11,28,6.40
2010,07,10,11,29,8.10
2010,07,10,11,30,9.50
2010,07,10,11,31,5.10
2010,07,10,11,32,1.00
2010,07,10,11,33,11.60
2010,07,10,11,34,9.30
2010,07,10,11,35,7.50
2010,07,10,11,36,5.00
2010,07,10,11,37,5.10
2010,07,10,11,38,7.50
2010,07,10,11,39,11.60
2010,07,10,11,40,5.40
2010,07,10,11,41,2.40
2010,07,10,11,42,4.00
2010,07,10,11,43,4.70
2010,07,10,11,44,6.00
2010,07,10,11,45,7.90
2010,07,10,11,46,5.70
2010,07,10,11,47,6.10
2010,07,10,11,48,5.20
2010,07,10,11,49,6.20
2010,07,10,11,50,8.30
2010,07,10,11,51,7.30
2010,07,10,11,52,6.50
2010,07,10,11,53,11.80
2010,07,10,11,54,6.70
2010,07,10,11,55,13.00
2010,07,10,11,56,13.30
2010,07,10,11,57,15.20
2010,07,10,11,58,10.50
2010,07,10,11,59,5.80
2010,07,10,12,00,7.40
2010,07,10,12,01,10.40
2010,07,10,12,02,6.80
2010,07,10,12,03,0.80
2010,07,10,12,04,7.00
2010,07,10,12,05,11.10
2010,07,10,12,06,13.90
2010,07,10,12,07,5.60
2010,07,10,12,08,3.20
2010,07,10,12,09,10.80
2010,07,10,12,10,12.20
2010,07,10,12,11,3.10
2010,07,10,12,12,3.00
2010,07,10,12,13,4.50
2010,07,10,12,14,4.30
2010,07,10,12,15,0.20
2010,07,10,12,16,2.50
2010,07,10,12,17,2.50
2010,07,10,12,18,3.10
2010,07,10,12,19,5.40
2010,07,10,12,20,2.60
2010,07,10,12,21,0.70
2010,07,10,12,22,4.60
2010,07,10,12,23,7.90
2010,07,10,12,24,4.60
2010,07,10,12,25,4.80
2010,07,10,12,26,1.70
2010,07,10,12,27,5.40
2010,07,10,12,28,6.50
2010,07,10,12,29,4.10
2010,07,10,12,30,5.00
2010,07,10,12,31,2.20
2010,07,10,12,32,1.90
2010,07,10,12,33,6.70
2010,07,10,12,34,4.60
2010,07,10,12,35,4.90
2010,07,10,12,36,1.90
2010,07,10,12,37,2.30
2010,07,10,12,38,11.00
2010,07,10,12,39,8.80
2010,07,10,12,40,6.50
2010,07,10,12,41,8.00
2010,07,10,12,42,0.90
2010,07,10,12,43,0.50
2010,07,10,12,44,6.60
2010,07,10,12,45,6.80
2010,07,10,12,46,4.60
2010,07,10,12,47,2.20
2010,07,10,12,48,2.30
2010,07,10,12,49,7.50
2010,07,10,12,50,4.00
2010,07,10,12,51,3.70
2010,07,10,12,52,8.50
2010,07,10,12,53,3.20
2010,07,10,12,54,1.80
2010,07,10,12,55,1.00
2010,07,10,12,56,2.80
2010,07,10,12,57,0.20
2010,07,10,12,58,1.10
2010,07,10,12,59,0.30
2010,07,10,13,00,1.20
2010,07,10,13,01,0.80
2010,07,10,13,02,3.50
2010,07,10,13,03,5.30
2010,07,10,13,04,9.70
2010,07,10,13,05,2.40
2010,07,10,13,06,7.80
2010,07,10,13,07,11.30
2010,07,10,13,08,13.20
2010,07,10,13,09,8.80
2010,07,10,13,10,0.20
2010,07,10,13,11,6.90
2010,07,10,13,12,6.20
2010,07,10,13,13,3.70
2010,07,10,13,14,1.50
2010,07,10,13,15,4.20
2010,07,10,13,16,8.50
2010,07,10,13,17,12.10
2010,07,10,13,18,10.20
2010,07,10,13,19,2.30
2010,07,10,13,20,2.70
2010,07,10,13,21,0.10
2010,07,10,13,22,0.40
2010,07,10,13,23,5.20
2010,07,10,13,24,1.90
2010,07,10,13,25,6.40
2010,07,10,13,26,5.60
2010,07,10,13,27,4.90
2010,07,10,13,28,10.40
2010,07,10,13,29,12.90
2010,07,10,13,30,8.90
2010,07,10,13,31,1.90
2010,07,10,13,32,2.50
2010,07,10,13,33,3.30
2010,07,10,13,34,1.50
2010,07,10,13,35,1.30
2010,07,10,13,36,4.20
2010,07,10,13,37,3.70
2010,07,10,13,38,6.40
2010,07,10,13,39,5.40
2010,07,10,13,40,5.70
2010,07,10,13,41,6.50
2010,07,10,13,42,1.10
2010,07,10,13,43,3.80
2010,07,10,13,44,7.10
2010,07,10,13,45,7.40
2010,07,10,13,46,8.50
2010,07,10,13,47,6.10
2010,07,10,13,48,8.20
2010,07,10,13,49,6.40
2010,07,10,13,50,7.00
2010,07,10,13,51,10.20
2010,07,10,13,52,8.00
2010,07,10,13,53,6.20
2010,07,10,13,54,3.30
2010,07,10,13,55,12.20
2010,07,10,13,56,11.00
2010,07,10,13,57,5.20
2010,07,10,13,58,5.60
2010,07,10,13,59,1.70
2010,07,10,14,00,2.50
2010,07,10,14,01,11.00
2010,07,10,14,02,7.50
2010,07,10,14,03,1.50
2010,07,10,14,04,4.00
2010,07,10,14,05,4.30
2010,07,10,14,06,10.20
2010,07,10,14,07,3.30
2010,07,10,14,08,1.80
2010,07,10,14,09,2.10
2010,07,10,14,10,7.20
2010,07,10,14,11,2.40
2010,07,10,14,12,6.00
2010,07,10,14,13,4.30
2010,07,10,14,14,2.30
2010,07,10,14,15,4.90
2010,07,10,14,16,2.50
2010,07,10,14,17,7.50
2010,07,10,14,18,2.30
2010,07,10,14,19,1.30
2010,07,10,14,20,3.10
2010,07,10,14,21,1.20
2010,07,10,14,22,5.00
2010,07,10,14,23,3.20
2010,07,10,14,24,6.00
2010,07,10,14,25,6.20
2010,07,10,14,26,3.90
2010,07,10,14,27,2.40
2010,07,10,14,28,11.90
2010,07,10,14,29,6.50
2010,07,10,14,30,2.80
2010,07,10,14,31,3.60
2010,07,10,14,32,3.60
2010,07,10,14,33,2.10
2010,07,10,14,34,1.10
2010,07,10,14,35,5.80
2010,07,10,14,36,3.40
2010,07,10,14,37,3.50
2010,07,10,14,38,5.90
2010,07,10,14,39,4.70
2010,07,10,14,40,1.50
2010,07,10,14,41,5.20
2010,07,10,14,42,3.00
2010,07,10,14,43,3.60
2010,07,10,14,44,5.10
2010,07,10,14,45,8.60
2010,07,10,14,46,6.20
2010,07,10,14,47,3.50
2010,07,10,14,48,5.30
2010,07,10,14,49,1.70
2010,07,10,14,50,2.80
2010,07,10,14,51,3.00
2010,07,10,14,52,0.60
2010,07,10,14,53,0.10
2010,07,10,14,54,6.00
2010,07,10,14,55,3.00
2010,07,10,14,56,1.30
2010,07,10,14,57,4.20
2010,07,10,14,58,3.30
2010,07,10,14,59,4.10
2010,07,10,15,00,8.30
2010,07,10,15,01,9.90
2010,07,10,15,02,10.80
2010,07,10,15,03,9.50
2010,07,10,15,04,17.40
2010,07,10,15,05,12.90
2010,07,10,15,06,12.80
2010,07,10,15,07,11.30
2010,07,10,15,08,6.70
2010,07,10,15,09,10.80
2010,07,10,15,10,11.70
2010,07,10,15,11,9.90
2010,07,10,15,12,12.80
2010,07,10,15,13,9.50
2010,07,10,15,14,10.20
2010,07,10,15,15,9.60
2010,07,10,15,16,12.30
2010,07,10,15,17,19.50
2010,07,10,15,18,12.40
2010,07,10,15,19,5.60
2010,07,10,15,20,8.10
2010,07,10,15,21,3.50
2010,07,10,15,22,8.40
2010,07,10,15,23,18.20
2010,07,10,15,24,10.20
2010,07,10,15,25,11.40
2010,07,10,15,26,9.40
2010,07,10,15,27,13.10
2010,07,10,15,28,15.80
2010,07,10,15,29,15.90
2010,07,10,15,30,12.50
2010,07,10,15,31,13.30
2010,07,10,15,32,15.80
2010,07,10,15,33,14.50
2010,07,10,15,34,12.00
2010,07,10,15,35,12.80
2010,07,10,15,36,15.70
2010,07,10,15,37,11.70
2010,07,10,15,38,7.80
2010,07,10,15,39,12.90
2010,07,10,15,40,17.30
2010,07,10,15,41,17.30
2010,07,10,15,42,10.90
2010,07,10,15,43,6.10
2010,07,10,15,44,9.70
2010,07,10,15,45,11.60
2010,07,10,15,46,10.50
2010,07,10,15,47,9.60
2010,07,10,15,48,17.10
2010,07,10,15,49,13.20
2010,07,10,15,50,13.50
2010,07,10,15,51,15.40
2010,07,10,15,52,11.90
2010,07,10,15,53,13.20
2010,07,10,15,54,6.70
2010,07,10,15,55,9.70
2010,07,10,15,56,8.00
2010,07,10,15,57,7.40
2010,07,10,15,58,9.00
2010,07,10,15,59,11.70
2010,07,10,16,00,8.90
2010,07,10,16,01,12.60
2010,07,10,16,02,12.00
2010,07,10,16,03,9.30
2010,07,10,16,04,11.30
2010,07,10,16,05,5.80
2010,07,10,16,06,9.90
2010,07,10,16,07,6.40
2010,07,10,16,08,3.40
2010,07,10,16,09,4.40
2010,07,10,16,10,6.00
2010,07,10,16,11,10.80
2010,07,10,16,12,18.20
2010,07,10,16,13,11.60
2010,07,10,16,14,6.70
2010,07,10,16,15,6.40
2010,07,10,16,16,9.90
2010,07,10,16,17,9.30
2010,07,10,16,18,6.40
2010,07,10,16,19,7.30
2010,07,10,16,20,11.40
2010,07,10,16,21,13.00
2010,07,10,16,22,13.40
2010,07,10,16,23,16.40
2010,07,10,16,24,9.10
2010,07,10,16,25,7.60
2010,07,10,16,26,9.40
2010,07,10,16,27,4.70
2010,07,10,16,28,4.10
2010,07,10,16,29,6.60
2010,07,10,16,30,6.90
2010,07,10,16,31,9.70
2010,07,10,16,32,7.70
2010,07,10,16,33,4.90
2010,07,10,16,34,9.10
2010,07,10,16,35,6.90
2010,07,10,16,36,9.70
2010,07,10,16,37,14.70
2010,07,10,16,38,15.70
2010,07,10,16,39,16.20
2010,07,10,16,40,15.20
2010,07,10,16,41,10.40
2010,07,10,16,42,14.90
2010,07,10,16,43,14.40
2010,07,10,16,44,7.70
2010,07,10,16,45,12.00
2010,07,10,16,46,14.00
2010,07,10,16,47,15.00
2010,07,10,16,48,12.50
2010,07,10,16,49,14.00
2010,07,10,16,50,19.60
2010,07,10,16,51,21.30
2010,07,10,16,52,17.60
2010,07,10,16,53,17.30
2010,07,10,16,54,12.20
2010,07,10,16,55,9.40
2010,07,10,16,56,15.20
2010,07,10,16,57,11.90
2010,07,10,16,58,10.80
2010,07,10,16,59,7.40
2010,07,10,17,00,8.60
2010,07,10,17,01,13.00
2010,07,10,17,02,12.20
2010,07,10,17,03,10.70
2010,07,10,17,04,11.80
2010,07,10,17,05,12.00
2010,07,10,17,06,13.20
2010,07,10,17,07,17.60
2010,07,10,17,08,17.60
2010,07,10,17,09,11.60
2010,07,10,17,10,17.30
2010,07,10,17,11,18.50
2010,07,10,17,12,16.60
2010,07,10,17,13,11.80
2010,07,10,17,14,16.70
2010,07,10,17,15,17.00
2010,07,10,17,16,16.20
2010,07,10,17,17,17.60
2010,07,10,17,18,13.40
2010,07,10,17,19,20.30
2010,07,10,17,20,18.40
2010,07,10,17,21,20.00
2010,07,10,17,22,18.80
2010,07,10,17,23,13.20
2010,07,10,17,24,15.20
2010,07,10,17,25,15.60
2010,07,10,17,26,15.20
2010,07,10,17,27,16.70
2010,07,10,17,28,14.40
2010,07,10,17,29,17.40
2010,07,10,17,30,15.60
2010,07,10,17,31,12.40
2010,07,10,17,32,9.00
2010,07,10,17,33,16.70
2010,07,10,17,34,14.10
2010,07,10,17,35,18.20
2010,07,10,17,36,13.90
2010,07,10,17,37,19.80
2010,07,10,17,38,20.80
2010,07,10,17,39,15.90
2010,07,10,17,40,17.00
2010,07,10,17,41,17.20
2010,07,10,17,42,20.20
2010,07,10,17,43,16.70
2010,07,10,17,44,13.00
2010,07,10,17,45,12.50
2010,07,10,17,46,14.60
2010,07,10,17,47,11.10